ATLAS 5 CENTAUR DEB, 44007

Orbit data source: Space-Track

ATLAS 5 CENTAUR DEB, 44007 is space debris in HEO originally from a launch on Wed, 17 Sep 2014 UTC launched from the Air Force Eastern Test Range (AFETR). Debris objects in space refer to the collection of defunct objects orbiting the Earth. Examples of debris include non-operational satellites, rocket bodies, and fragments generated from explosions, collisions, or faulty payload assembly.

Loading next visibility...
Identifier
44007, 2014-055BN
Orbit
HEO
Country
Flag of USUS
Related business
Flag of USUnited Launch Alliance/Lockheed Martin (US)
Manufacturer
Unknown
Mission
Spacecraft
Bus & Motor
Unknown
Mass
Unknown
Launch date (UTC)
2014-09-17 (12 years ago)
Launch vehicle
Unknown
Launch site
Air Force Eastern Test Range (AFETR)
Object type
Payload
Rocket body
Debris
Shape & HBR
Unknown shape, 1.1 m
Radar Cross Section
Small (<0.1 m²)

Expand to show TLE details & history
Last TLE update: 11 hours ago

TLE from 11 hours ago
0 ATLAS 5 CENTAUR DEB
1 44007U 14055BN  26133.43736510  .00000015  00000-0  00000+0 0  9999
2 44007  19.0807 181.1899 4885361  99.3099 316.9866  1.76242431 49027
Epoch: 2026-05-13T10:29Z
TLE epoch observation values (Epoch: 2026-05-13T10:29:48.344Z)
Latitude
0.00001°
Longitude
152.6557°
Altitude
17,515.549 km
Speed
4.427 km/s
True Right ascension
12h 05m 13s
True Declination
0° 00' 00"
Sunlit
Object was in daylight at epoch
Visualization orbit readout
Latitude
Unknown
Longitude
Unknown
Altitude
Unknown
Speed
Unknown
Apparent Right ascension
Unknown
Apparent Declination
Unknown
Sunlit
N/A
Visualization observer readout
Local Sidereal Time
05:33:15
Azimuth
Unknown
Elevation
Unknown
Doppler factor
Unknown
Orbital elements
Apogee altitude
36,719.158 km
Perigee altitude
8,430.177 km
Semi-major axis
28,952.804 km
Eccentricity
0.48854
Inclination
19.0807°
RAAN
181.1899°
Arg. of periapsis
99.3099°
True anomaly
260.73513°
Mean anomaly
316.9866°
Eccentric anomaly
290.82401°
Mean motion
0.44056 °/min
Orbital period
817.14 mins
BSTAR
0
Loading maneuver chart data...
Computing Atmospheric mass density...

Documentation

Showing up to 5 results
|